Location: Lachepaillet
(43.4918°N, 1.4874°W)
Time: 02:38:22
(UTC+00:00)

Cosmos 1626 Rocket - Pass Details

Date: 15 May 2026
Orbit: 597 x 622 km, 82.5° (Epoch: 8 June)

Event Time Altitude Azimuth Distance (km) Brightness Sun altitude
Rises 20:56:20 0° 352° (N) 2,881 7.9 -14.3°
Reaches altitude 10° 20:58:34 10° 353° (N) 1,976 6.9 -14.6°
Maximum altitude 21:02:57 84° 81° (E) 624 3.5 -15.2°
Enters shadow 21:05:44 22° 170° (S) 1,347 4.8 -15.5°
